Location: Chippewa Lake
(41.0698°N, 81.9010°W)
Time: 12:24:23
(UTC+00:00)

Cosmos 2084 - Pass Details

Date: 30 September 2021
Orbit: 529 x 652 km, 62.8° (Epoch: 20 October)

Event Time Altitude Azimuth Distance (km) Brightness Sun altitude
Exits shadow 08:41:41 27° 68° (ENE) 1,067 5.3 -30.5°
Drops below altitude 10° 08:43:49 10° 49° (NE) 1,810 6.8 -30.1°
Sets 08:46:08 0° 42° (NE) 2,722 7.8 -29.7°
